Clarion, IA

5:59 PM CST on December 07, 2019 (GMT -0600)
Clarion Municipal

Weather History for KCAV - September, 2019

Change the Weather History Date:

Tuesday, September 3, 2019

  Actual Average Record
Temperature  
Mean Temperature 68 °F -  
Max Temperature 80 °F 78 °F 91 °F (1999)
Min Temperature 57 °F 55 °F 32 °F (1974)
Cooling Degree Days 4    
Growing Degree Days 18 (Base 50)    
Moisture  
Dew Point 66 °F    
Average Humidity 83    
Maximum Humidity 100    
Minimum Humidity 44    
Precipitation  
Precipitation 0.02 in - - ()
Sea Level Pressure  
Sea Level Pressure 29.90 in    
Wind  
Wind Speed 11 mph (WNW)    
Max Wind Speed 17 mph    
Max Gust Speed 26 mph    
Visibility 10 miles    
Events      
Averages and records for this station are not official NWS values.
T = Trace of Precipitation, MM = Missing Value Source: NWS Daily Summary

Daily Weather History Graph

Daily Weather History Graph

Search for Another Location

Airport or City:

Astronomy

Sep. 03, 2019 Rise Set
Actual Time 6:41 AM CDT 7:46 PM CDT
Civil Twilight 6:12 AM CDT 8:15 PM CDT
Nautical Twilight 5:38 AM CDT 8:49 PM CDT
Astronomical Twilight 5:01 AM CDT 9:25 PM CDT
Moon 11:42 AM CDT (9/3) 10:36 PM CDT (9/3)
Length of Visible Light 14h 02m
Length of Day
13h 04m
Waxing Crescent, 25% of the Moon is Illuminated
Sep 3
Waxing Crescent
Sep 5
First Quarter
Sep 13
Full
Sep 21
Last Quarter
Sep 28
New

Hourly Weather History & Observations

Time (CDT) Temp. Heat Index Dew Point Humidity Pressure Visibility Wind Dir Wind Speed Gust Speed Precip Events Conditions
12:15 AM 73.4 °F - 69.8 °F 88% 29.87 in 10.0 mi South 16.1 mph 23.0 mph N/A   Overcast
12:35 AM 73.4 °F - 69.8 °F 88% 29.86 in 10.0 mi South 17.3 mph 26.5 mph N/A   Overcast
12:55 AM 71.6 °F - 69.8 °F 94% 29.86 in 10.0 mi South 16.1 mph 24.2 mph N/A   Overcast
1:15 AM 71.6 °F - 69.8 °F 94% 29.85 in 10.0 mi South 16.1 mph 23.0 mph N/A   Overcast
1:35 AM 71.6 °F - 69.8 °F 94% 29.84 in 10.0 mi South 15.0 mph 23.0 mph N/A   Overcast
1:55 AM 71.6 °F - 69.8 °F 94% 29.83 in 10.0 mi South 13.8 mph 20.7 mph N/A   Mostly Cloudy
2:15 AM 71.6 °F - 69.8 °F 94% 29.82 in 10.0 mi South 16.1 mph - N/A   Overcast
2:35 AM 71.6 °F - 69.8 °F 94% 29.82 in 10.0 mi South 13.8 mph - N/A   Overcast
2:55 AM 71.6 °F - 69.8 °F 94% 29.81 in 10.0 mi South 11.5 mph 20.7 mph N/A   Overcast
3:15 AM 71.6 °F - 69.8 °F 94% 29.80 in 10.0 mi South 12.7 mph 18.4 mph N/A   Overcast
3:35 AM 71.6 °F - 69.8 °F 94% 29.80 in 10.0 mi SSW 10.4 mph - N/A   Overcast
4:15 AM 71.6 °F - 71.6 °F 100% 29.80 in 10.0 mi SSW 9.2 mph - N/A   Mostly Cloudy
4:35 AM 71.6 °F - 71.6 °F 100% 29.80 in 10.0 mi SSW 9.2 mph - N/A   Overcast
4:55 AM 71.6 °F - 71.6 °F 100% 29.81 in 10.0 mi SW 8.1 mph 15.0 mph N/A   Overcast
5:15 AM 71.6 °F - 71.6 °F 100% 29.81 in 10.0 mi SW 9.2 mph - N/A   Overcast
5:35 AM 71.6 °F - 71.6 °F 100% 29.81 in 10.0 mi SW 9.2 mph - N/A   Overcast
5:55 AM 71.6 °F - 71.6 °F 100% 29.81 in 10.0 mi SW 6.9 mph - N/A   Overcast
6:15 AM 73.4 °F - 71.6 °F 94% 29.81 in 10.0 mi SW 9.2 mph - N/A   Overcast
6:35 AM 71.6 °F - 71.6 °F 100% 29.82 in 10.0 mi WSW 9.2 mph - N/A   Overcast
6:55 AM 73.4 °F - 71.6 °F 94% 29.83 in 9.0 mi WSW 8.1 mph - N/A   Overcast
7:15 AM 73.4 °F - 71.6 °F 94% 29.83 in 9.0 mi West 8.1 mph - N/A   Overcast
7:35 AM 73.4 °F - 71.6 °F 94% 29.84 in 9.0 mi West 8.1 mph - N/A   Overcast
7:55 AM 73.4 °F - 73.4 °F 100% 29.85 in 9.0 mi WNW 8.1 mph - N/A   Mostly Cloudy
8:15 AM 73.4 °F - 73.4 °F 100% 29.86 in 9.0 mi West 9.2 mph - N/A   Mostly Cloudy
8:35 AM 75.2 °F - 73.4 °F 94% 29.84 in 9.0 mi WNW 5.8 mph 13.8 mph N/A   Mostly Cloudy
8:55 AM 77.0 °F - 73.4 °F 89% 29.83 in 10.0 mi WNW 5.8 mph - N/A   Clear
9:15 AM 77.0 °F - 73.4 °F 89% 29.83 in 10.0 mi WNW 4.6 mph 12.7 mph N/A   Partly Cloudy
9:35 AM 77.0 °F - 73.4 °F 89% 29.84 in 10.0 mi NNW 5.8 mph 12.7 mph N/A   Scattered Clouds
9:55 AM 77.0 °F - 73.4 °F 89% 29.85 in 10.0 mi West 6.9 mph - N/A   Scattered Clouds
10:15 AM 77.0 °F - 71.6 °F 83% 29.92 in 10.0 mi NW 13.8 mph - N/A   Partly Cloudy
10:35 AM 75.2 °F - 71.6 °F 89% 29.92 in 10.0 mi NW 11.5 mph 19.6 mph N/A   Partly Cloudy
10:55 AM 73.4 °F - 71.6 °F 94% 29.92 in 8.0 mi WNW 6.9 mph - N/A   Partly Cloudy
11:15 AM 73.4 °F - 71.6 °F 94% 29.86 in 7.0 mi South 4.6 mph - N/A   Partly Cloudy
11:35 AM 71.6 °F - 71.6 °F 100% 29.85 in 10.0 mi South 6.9 mph - N/A   Clear
11:55 AM 71.6 °F - 69.8 °F 94% 29.88 in 10.0 mi North 6.9 mph - 0.02 in   Clear
12:15 PM 71.6 °F - 69.8 °F 94% 29.90 in 10.0 mi NW 8.1 mph - N/A   Clear
12:35 PM 73.4 °F - 69.8 °F 88% 29.91 in 10.0 mi WNW 5.8 mph - N/A   Partly Cloudy
12:55 PM 75.2 °F - 69.8 °F 83% 29.92 in 10.0 mi West 9.2 mph - N/A   Partly Cloudy
1:15 PM 75.2 °F - 69.8 °F 83% 29.92 in 10.0 mi West 9.2 mph - N/A   Clear
1:35 PM 77.0 °F - 71.6 °F 83% 29.92 in 10.0 mi West 10.4 mph - N/A   Clear
1:55 PM 78.8 °F - 68.0 °F 69% 29.92 in 10.0 mi WNW 11.5 mph - N/A   Clear
2:15 PM 78.8 °F - 68.0 °F 69% 29.92 in 10.0 mi WNW 12.7 mph 18.4 mph N/A   Clear
2:55 PM 78.8 °F - 64.4 °F 61% 29.91 in 10.0 mi NW 15.0 mph - N/A   Clear
3:15 PM 78.8 °F - 62.6 °F 57% 29.91 in 10.0 mi NW 13.8 mph 20.7 mph N/A   Partly Cloudy
3:35 PM 80.6 °F 81.8 °F 62.6 °F 54% 29.92 in 10.0 mi NW 15.0 mph 26.5 mph N/A   Clear
3:55 PM 80.6 °F 81.5 °F 60.8 °F 51% 29.92 in 10.0 mi NW 17.3 mph 25.3 mph N/A   Clear
4:15 PM 80.6 °F 81.5 °F 60.8 °F 51% 29.92 in 10.0 mi NW 13.8 mph 20.7 mph N/A   Clear
4:35 PM 80.6 °F 81.8 °F 62.6 °F 54% 29.92 in 10.0 mi NW 12.7 mph 19.6 mph N/A   Clear
4:55 PM 78.8 °F - 60.8 °F 54% 29.92 in 10.0 mi NW 15.0 mph 23.0 mph N/A   Clear
5:15 PM 78.8 °F - 59.0 °F 51% 29.93 in 10.0 mi NW 12.7 mph 19.6 mph N/A   Clear
5:35 PM 78.8 °F - 55.4 °F 44% 29.94 in 10.0 mi NW 10.4 mph 19.6 mph N/A   Clear
5:55 PM 77.0 °F - 53.6 °F 44% 29.94 in 10.0 mi NW 12.7 mph 18.4 mph N/A   Clear
6:15 PM 77.0 °F - 55.4 °F 47% 29.95 in 10.0 mi NW 9.2 mph 16.1 mph N/A   Clear
6:35 PM 75.2 °F - 57.2 °F 53% 29.96 in 10.0 mi WNW 9.2 mph - N/A   Clear
6:55 PM 73.4 °F - 57.2 °F 57% 29.96 in 10.0 mi NW 9.2 mph - N/A   Clear
7:15 PM 71.6 °F - 59.0 °F 64% 29.97 in 10.0 mi NW 9.2 mph - N/A   Clear
7:35 PM 69.8 °F - 59.0 °F 68% 29.98 in 10.0 mi NNW 8.1 mph - N/A   Clear
7:55 PM 68.0 °F - 57.2 °F 68% 29.99 in 10.0 mi NNW 6.9 mph - N/A   Clear
8:15 PM 66.2 °F - 57.2 °F 73% 30.00 in 10.0 mi NNW 5.8 mph - N/A   Clear
8:35 PM 62.6 °F - 57.2 °F 82% 30.01 in 10.0 mi NNW 5.8 mph - N/A   Clear
8:55 PM 62.6 °F - 57.2 °F 82% 30.02 in 10.0 mi NNW 4.6 mph - N/A   Clear
9:15 PM 60.8 °F - 57.2 °F 88% 30.02 in 10.0 mi NNW 5.8 mph - N/A   Partly Cloudy
9:35 PM 60.8 °F - 57.2 °F 88% 30.03 in 10.0 mi NNW 4.6 mph - N/A   Partly Cloudy
10:15 PM 59.0 °F - 55.4 °F 88% 30.05 in 10.0 mi NNW 8.1 mph - N/A   Clear
10:35 PM 59.0 °F - 55.4 °F 88% 30.05 in 10.0 mi North 6.9 mph - N/A   Clear
10:55 PM 59.0 °F - 55.4 °F 88% 30.06 in 10.0 mi NNW 6.9 mph - N/A   Scattered Clouds
11:15 PM 59.0 °F - 55.4 °F 88% 30.06 in 10.0 mi NNW 6.9 mph - N/A   Scattered Clouds
11:35 PM 57.2 °F - 55.4 °F 94% 30.07 in 10.0 mi NNW 5.8 mph - N/A   Scattered Clouds
11:55 PM 57.2 °F - 55.4 °F 94% 30.07 in 10.0 mi NNW 5.8 mph - N/A   Partly Cloudy